Flag for Canada Weather past 2 weeks in Red Deer, Alberta, Canada

Now
50 °F

Passing clouds.


Feels Like: 50 °F
Forecast: 43 / 66 °F
Wind: No wind

Location: Red Deer

Current Time: Sep 2, 2015 at 9:59:22 AM

Latest Report: Sep 2, 2015 at 9:00 AM


Visibility: 15 mi

Pressure: 29.59 "Hg (26.69 "Hg at 857m altitude)

Humidity: 82%

Dew point: 45 °F

Location of Red DeerLocation

Historic Weather in Red Deer — Graph

°F

Red Deer temperature yesterday

Maximum temperature yesterday: 70 °F (at 4:00 PM)
Minimum temperature yesterday: 41 °F (at 5:00 AM)
Average temperature yesterday: 56 °F

Past Weeks' High & Low Weather Summary

 TemperatureHumidityPressure
High79 °F (Aug 19, 3:00 PM)100% (Aug 20, 2:00 AM)30.26 "Hg (Aug 20, 2:00 AM)
Low36 °F (Aug 23, 6:00 AM)30% (Aug 19, 3:00 PM)29.47 "Hg (Aug 29, 6:00 PM)
Average57 °F73%29.87 "Hg
* Reported Aug 18 8:00 AM — Sep 2 8:00 AM, Red Deer, Weather by CustomWeather, © 2015

Note: Actual official high and low records may vary slightly from our data, if they occured in-between our weather recording intervals... More about our weather records

Advertising

Red Deer weather history for previous 24 hours

 ConditionsComfort  
Time TempWeatherWind HumidityBarometerVisibility
8:00 AM
Wed, Sep 2
43 °FScattered clouds.No wind93%29.61 "Hg15 mi
7:00 AM39 °FPassing clouds.3 mph93%29.62 "Hg15 mi
6:00 AM41 °FPartly cloudy.7 mph93%29.61 "Hg15 mi
5:00 AM46 °FPassing clouds.No wind87%29.60 "Hg15 mi
4:00 AM45 °FPartly cloudy.5 mph93%29.59 "Hg15 mi
3:00 AM45 °FPassing clouds.3 mph87%29.60 "Hg15 mi
2:00 AM45 °FPartly cloudy.8 mph81%29.62 "Hg15 mi
1:00 AM48 °FPassing clouds.8 mph76%29.61 "Hg15 mi
12:00 AM52 °FOvercast.7 mph72%29.62 "Hg15 mi
11:00 PM
Tue, Sep 1
52 °FOvercast.7 mph77%29.64 "Hg15 mi
10:00 PM55 °FMostly cloudy.8 mph67%29.67 "Hg15 mi
9:00 PM55 °FPartly sunny.6 mph72%29.67 "Hg15 mi
8:00 PM61 °FPartly sunny.10 mph55%29.66 "Hg15 mi
7:00 PM63 °FPartly sunny.7 mph59%29.66 "Hg15 mi
6:00 PM66 °FPartly sunny.8 mph46%29.66 "Hg15 mi
5:00 PM70 °FBroken clouds.10 mph40%29.67 "Hg15 mi
4:00 PM70 °FBroken clouds.9 mph38%29.67 "Hg15 mi
3:00 PM68 °FPartly sunny.6 mph38%29.69 "Hg15 mi
2:00 PM66 °FBroken clouds.3 mph37%29.70 "Hg15 mi
1:00 PM64 °FBroken clouds.3 mph43%29.70 "Hg15 mi
12:00 PM63 °FPartly sunny.6 mph42%29.70 "Hg15 mi
11:00 AM59 °FPartly sunny.9 mph59%29.69 "Hg15 mi
10:00 AM55 °FPartly sunny.5 mph67%29.68 "Hg15 mi
9:00 AM52 °FPassing clouds.6 mph72%29.66 "Hg15 mi
Weather by CustomWeather, © 2015

See weather overviewHow to use our weather pages